Location: Newark
(47.3000°N, 8.0500°E)
Time: 09:21:50
(UTC+00:00)

ISS - Visible Passes

Search period start: 25 August 2019 00:00
Search period end: 04 September 2019 00:00
Orbit: 410 x 421 km, 51.6° (Epoch: 26 August)

Date Brightness Start Highest point End Pass type
(mag) Time Alt. Az. Time Alt. Az. Time Alt. Az.
28 Aug -1.5 03:36:36 10° S 03:38:58 18° SE 03:41:21 10° E visible
29 Aug -1.1 02:49:15 10° SSE 02:50:23 11° SE 02:51:30 10° ESE visible
30 Aug -2.8 03:35:22 15° SSW 03:37:46 40° SE 03:40:56 10° ENE visible
31 Aug -2.3 02:48:36 25° SSE 02:49:03 26° SE 02:51:54 10° E visible
01 Sep -1.0 02:01:45 13° ESE 02:01:45 13° ESE 02:02:35 10° E visible
01 Sep -3.8 03:34:38 21° WSW 03:36:41 87° SSE 03:40:03 10° ENE visible
02 Sep -3.6 02:47:44 57° SSE 02:47:51 58° SSE 02:51:10 10° ENE visible
03 Sep -1.4 02:00:48 21° E 02:00:48 21° E 02:02:11 10° ENE visible
03 Sep -3.3 03:33:40 20° W 03:35:43 54° NNW 03:39:01 10° ENE visible
